Regional Weather Roundup
Issued by NWS Goodland, KS

Home | Current Version | Previous Version | Text Only | Print | Product List | Glossary On
Versions: 1 2 3 4 5 6 7 8 9 10 11 12 13 14 15 16 17 18 19 20 21 22 23 24 25 26 27 28 29 30 31 32 33 34 35 36 37 38 39 40 41 42 43 44 45 46 47 48 49 50
000
ASUS43 KGLD 290808
RWRGLD

GOODLAND FORECAST AREA HOURLY WEATHER ROUNDUP
NATIONAL WEATHER SERVICE GOODLAND KS
200 AM MDT FRI JUL 29 2016

...OFFICIAL OBSERVATIONS...

CITY           SKY/WX    TMP DP  RH WIND       PRES   REMARKS
GOODLAND KS    CLOUDY    65  61  87 SW3       30.16F
HILL CITY KS   LGT RAIN  68  67  96 CALM      30.06F
IMPERIAL NEB   CLOUDY    64  61  90 W7        30.14F
MCCOOK NEB     CLEAR     60  58  92 CALM      30.11F
AKRON CO       MOCLDY    62  58  86 S8        30.20F
BURLINGTON CO  CLOUDY    63  59  87 NE5       30.19F
LIMON CO       CLOUDY    61  59  93 NE6       30.26R
$$

...UNOFFICIAL OBSERVATIONS...

CITY           SKY/WX    TMP DP  RH WIND       PRES   REMARKS
COLBY KS       LGT RAIN  66  66 100 N3        30.15S
LENORA KS        N/A     66  32  28 MISG        N/A
NORTON KS      PTCLDY    64  63  94 NW3       30.07S
SHARON SPRINGS   N/A     63  61  93 CALM        N/A
KIT CARSON CO    N/A     63  59  86 MISG        N/A
$$



USA.gov is the U.S. government's official web portal to all federal, state and local government web resources and services.